Regional Weather Roundup
Issued by NWS

Home | Current Version | Previous Version | Graphics & Text | Print | Product List | Glossary On
Versions: 1 2 3 4 5 6 7 8 9 10 11 12 13 14 15 16 17 18 19 20 21 22 23 24 25 26 27 28 29 30 31 32 33 34 35 36 37 38 39 40 41 42 43 44 45 46 47 48 49 50
000
ASUS43 KFSD 251510
RWRSD

WEATHER ROUNDUP FOR SOUTH DAKOTA
NATIONAL WEATHER SERVICE SIOUX FALLS SD
1000 AM CDT THU AUG 25 2016

NOTE: "FAIR" INDICATES FEW OR NO CLOUDS BELOW 12,000 FEET WITH NO
SIGNIFICANT WEATHER AND/OR OBSTRUCTIONS TO VISIBILITY.


SDZ001>005-009-010-012>017-251600-
NORTHWEST AND NORTH CENTRAL SOUTH DAKOTA

CITY           SKY/WX    TMP DP  RH WIND       PRES   REMARKS
BUFFALO          N/A     57  45  64 NW18G28   30.20S
FAITH            N/A     57  47  69 NW17      30.23S
MOBRIDGE       MOSUNNY   61  47  59 NW17      30.15R
$$

SDZ012>016-024>037-041>051-057-063-072>074-251600-
SOUTHWEST AND SOUTH CENTRAL SOUTH DAKOTA

CITY           SKY/WX    TMP DP  RH WIND       PRES   REMARKS
RAPID CTY ARPT CLOUDY    58  43  57 N14       30.30R
PIERRE         MOSUNNY   61  48  62 NW15      30.21R
CUSTER         CLOUDY    47  41  80 S3        30.32R
ELLSWORTH AFB  PTSUNNY   58  44  59 N16       30.28
PHILIP         CLOUDY    60  47  61 NW12      30.25F
PINE RIDGE     CLOUDY    54  47  77 NW8       30.33R
WINNER         FAIR      63  51  65 NW13      30.24R
$$

SDZ004>011-016>023-039-040-251600-
NORTHEAST SOUTH DAKOTA

CITY           SKY/WX    TMP DP  RH WIND       PRES   REMARKS
ABERDEEN       PTSUNNY   63  50  62 NW14      30.12S
WATERTOWN      MOSUNNY   61  51  70 NW13      30.12R
BROOKINGS      MOSUNNY   58  52  80 NW13      30.13R
SISSETON         N/A     61  51  70 NW20      30.07R
$$

SDZ017-020-022-023-036>040-048>070-251600-
SOUTHEAST SOUTH DAKOTA

CITY           SKY/WX    TMP DP  RH WIND       PRES   REMARKS
SIOUX FALLS    CLOUDY    61  53  75 NW13      30.15R
HURON          MOSUNNY   61  50  67 NW13      30.16R
CHAMBERLAIN    MOSUNNY   63  53  68 W10       30.21S
MITCHELL       CLOUDY    60  52  74 NW8       30.18R
YANKTON        CLOUDY    61  48  63 NW10      30.17R
$$

ABBREVIATIONS USED IN REMARKS
   TC - TEMPERATURE IN CELSIUS
  WCI - WIND CHILL INDEX
   HX - HEAT INDEX
  VSB - VISIBILITY





USA.gov is the U.S. government's official web portal to all federal, state and local government web resources and services.